Theta_e
321 321 322 322 321 324 334 348 355 358 355 353 354 354 351 349 349 342 338 339 344 344 346 345 345 345 346 345 348 347 344 342 344 348 349 347 347 346 347 347 345 346 346 345
319 322 322 322 324 325 331 355 358 357 353 353 354 354 353 350 349 348 343 339 342 340 344 345 345 346 347 347 349 347 342 346 345 346 346 347 346 347 346 346 348 345 347 348
319 320 323 324 324 324 353 357 356 357 354 350 354 355 352 349 347 345 345 343 340 343 346 345 345 347 348 347 348 346 344 347 345 346 345 347 348 349 348 348 348 347 349 349
317 318 320 320 322 332 354 354 345 349 355 360 352 359 355 350 349 346 345 342 343 343 345 345 347 346 348 348 348 347 346 346 344 345 344 347 347 348 348 348 347 349 348 348
315 317 317 318 319 336 351 345 351 355 354 354 354 360 353 351 351 347 344 342 345 340 346 346 346 346 347 347 347 348 347 346 344 343 345 347 348 347 348 347 345 348 346 348
318 317 318 317 327 340 345 348 352 354 352 356 353 359 359 354 348 344 342 343 345 340 346 347 347 347 346 347 349 348 346 345 346 341 346 346 347 347 347 348 348 346 348 348
319 320 317 321 348 348 341 340 355 358 356 353 349 353 350 347 344 344 343 343 345 342 343 347 348 349 348 347 348 349 349 348 345 348 342 346 346 348 349 346 348 349 349 348
320 321 318 320 332 348 342 343 351 358 358 358 351 355 350 345 343 343 342 342 343 344 340 341 346 349 351 349 351 351 348 349 348 349 348 346 347 349 349 348 348 349 349 348
321 322 323 321 323 342 335 340 338 348 350 353 353 351 352 352 353 348 345 342 344 346 341 342 345 349 352 351 354 352 351 348 350 348 348 348 349 349 348 348 348 349 350 349
323 324 322 324 323 323 322 326 335 336 353 354 358 356 355 354 355 350 345 342 344 344 342 342 343 344 348 353 354 353 351 349 350 350 348 349 349 349 348 349 348 351 350 351
322 322 324 323 324 323 323 324 325 324 336 349 358 355 348 349 352 349 344 341 343 345 342 342 343 344 346 350 355 354 352 351 351 350 351 352 350 352 351 351 350 352 351 351
323 320 325 325 322 322 321 323 321 325 327 334 340 338 350 348 350 348 347 345 343 342 341 341 342 344 347 349 354 353 352 351 349 351 352 350 349 350 350 351 351 349 351 350
323 321 324 325 325 324 326 326 321 318 316 320 325 330 351 345 342 345 343 342 344 345 344 342 342 345 349 351 353 353 353 351 350 353 350 349 351 350 351 350 350 351 349 351
324 319 322 324 327 325 327 330 339 320 318 319 321 346 349 348 348 344 341 344 346 346 346 346 344 346 351 352 353 352 352 351 352 354 352 351 350 352 352 352 350 350 350 350
324 326 325 325 331 332 339 342 345 346 342 320 323 345 346 345 344 339 341 342 343 349 349 346 345 345 347 350 351 351 351 350 350 351 352 351 349 351 351 352 351 352 351 349
323 328 332 334 335 335 339 339 340 346 349 350 349 350 342 342 339 338 342 340 344 347 350 344 345 345 347 349 349 349 348 346 346 345 348 351 348 342 347 349 349 350 350 351
325 330 331 337 335 336 340 337 338 344 345 345 344 340 339 337 336 335 338 344 344 347 349 346 342 342 341 343 347 347 346 346 345 344 345 347 347 344 345 342 342 347 347 347
324 325 328 331 331 339 335 335 331 341 345 341 342 339 336 336 338 343 342 340 337 339 340 343 344 343 342 342 343 344 343 339 337 344 346 347 346 346 343 342 344 340 343 344
321 323 328 331 332 336 336 335 334 332 340 341 345 350 347 343 343 343 337 334 334 332 331 333 340 345 347 346 345 347 343 344 345 345 344 344 345 344 344 344 343 344 344 343
323 321 326 329 331 335 335 331 329 332 341 339 344 346 346 342 344 344 334 331 329 328 329 330 332 343 344 346 347 345 345 344 343 343 343 343 343 342 343 343 343 342 343 343
326 324 325 330 333 332 330 330 328 336 338 337 335 338 341 342 336 336 328 326 327 326 327 330 331 329 332 338 341 339 339 342 343 342 343 343 343 342 341 341 341 341 341 338
325 327 328 330 331 332 327 328 331 330 331 331 331 334 340 337 335 331 327 325 325 324 325 327 328 329 330 333 335 331 331 335 337 341 341 340 339 338 339 339 339 337 335 331
324 324 328 329 331 326 327 328 329 329 332 334 334 336 337 336 333 329 327 325 325 325 324 324 325 326 328 329 331 328 327 330 333 335 337 338 339 339 338 338 336 334 332 330
325 324 325 328 326 329 327 324 325 324 325 332 335 337 335 334 331 329 326 324 325 325 324 323 323 322 323 325 326 327 327 329 330 330 329 327 329 329 330 334 334 333 331 328
324 324 324 326 327 327 324 323 323 322 324 335 336 335 333 331 330 328 326 325 325 324 324 324 322 321 321 322 322 322 323 325 327 328 327 325 324 325 322 319 316 316 316 318
321 321 325 326 324 323 323 320 321 321 323 334 334 334 332 330 328 326 324 325 324 323 323 322 320 320 320 320 321 321 321 321 321 321 324 323 321 319 320 319 312 312 313 315
Wind_Speed
3 4 6 8 7 6 5 8 10 4 3 1 3 3 4 4 3 10 8 8 18 19 26 29 30 28 32 30 26 23 22 22 16 9 14 24 22 20 17 13 14 13 8 7
6 4 10 7 8 7 9 9 8 6 2 4 3 5 5 3 3 0 3 11 16 12 17 24 26 27 32 33 30 25 24 22 18 13 11 19 19 23 18 14 12 11 9 6
7 9 10 9 10 10 2 8 13 1 3 4 3 4 4 3 3 3 4 3 12 22 21 17 23 25 30 32 33 29 26 22 20 16 12 13 16 22 21 16 11 9 8 8
6 13 12 8 11 5 3 5 14 15 9 3 2 3 4 12 10 3 5 4 6 18 19 19 23 24 29 32 33 31 28 23 19 19 16 14 16 22 24 20 16 14 10 7
9 7 4 7 10 9 6 8 7 16 6 2 6 1 4 8 13 15 8 6 6 17 22 20 25 29 29 35 35 31 29 23 20 22 18 18 15 15 18 17 15 16 14 11
8 6 5 7 5 13 21 16 13 3 1 3 6 4 4 7 22 15 5 7 6 16 19 21 28 27 26 28 30 31 27 24 20 20 19 19 18 13 14 16 16 16 15 13
8 6 5 6 14 7 13 9 3 2 2 3 5 3 6 7 6 15 15 13 11 8 18 18 18 23 24 28 29 31 30 28 24 20 19 19 18 12 14 18 17 14 16 15
2 8 2 3 9 12 8 5 6 5 4 1 1 4 5 3 12 22 21 18 13 10 11 16 25 26 27 30 30 31 32 31 29 25 20 17 15 15 13 18 20 17 18 17
2 5 5 2 4 13 6 2 8 7 2 3 2 7 9 1 6 9 14 19 17 12 10 13 21 27 30 31 32 34 33 32 30 27 22 22 20 17 19 15 17 15 15 18
1 4 4 6 2 4 9 6 4 2 6 4 4 1 9 10 2 7 12 16 19 10 9 8 17 27 30 32 33 34 36 35 34 30 28 25 21 17 15 16 18 15 14 13
3 2 7 4 2 7 0 1 3 4 5 5 5 6 12 18 11 15 17 17 18 15 11 12 16 23 29 30 30 31 34 32 33 32 29 26 22 18 15 12 16 14 12 11
3 3 3 7 8 9 5 8 6 5 7 2 3 5 6 8 9 8 6 5 12 11 7 11 16 24 24 28 30 33 33 34 33 32 29 27 22 19 18 15 14 13 11 11
4 3 4 10 8 9 6 5 3 1 3 3 4 5 3 2 6 13 7 5 0 5 7 8 14 16 21 25 28 27 32 34 33 31 29 27 25 22 19 16 14 10 11 12
4 2 5 5 7 4 7 11 9 2 3 2 5 3 4 8 2 7 9 2 3 3 8 9 9 19 24 30 30 30 31 30 29 28 30 28 24 21 18 16 14 13 13 12
4 2 4 5 4 8 12 12 16 7 5 5 3 5 4 4 5 4 4 4 11 4 6 9 13 14 22 25 32 34 30 25 18 21 27 27 22 19 18 13 7 11 14 13
4 2 4 3 6 7 12 19 12 9 11 6 11 7 5 4 6 7 6 7 8 6 3 5 15 19 24 26 28 29 23 18 12 6 12 21 21 13 15 12 9 6 5 11
3 3 3 2 4 3 7 7 10 5 10 1 4 1 4 5 8 5 4 5 5 5 8 4 5 10 14 22 33 29 21 22 20 11 10 17 20 21 20 18 14 11 8 1
2 2 2 3 4 3 5 4 7 6 8 10 11 8 7 5 4 7 7 6 11 11 6 9 7 12 13 17 19 25 29 21 16 14 10 12 14 15 12 13 11 11 10 10
3 4 3 3 2 3 5 2 1 4 5 4 6 9 10 9 8 9 9 8 10 8 10 6 17 19 16 13 13 20 21 20 17 13 13 12 11 10 11 13 12 7 9 11
2 7 4 3 3 2 6 3 5 2 3 7 2 5 5 1 3 2 5 7 10 8 12 12 16 22 21 21 19 17 17 19 17 14 11 12 12 11 12 13 12 14 15 17
4 4 4 2 1 3 6 8 2 5 5 4 2 3 2 3 3 7 7 6 11 9 11 14 17 13 15 20 23 21 17 15 14 13 17 12 12 11 12 13 12 14 15 16
3 4 2 2 4 1 4 5 5 4 4 7 5 2 8 11 12 10 7 7 10 11 11 14 15 12 13 13 16 18 17 14 12 17 14 10 9 10 11 13 14 14 16 17
1 5 5 4 5 6 7 3 1 5 5 4 5 6 7 10 8 10 7 3 10 14 14 13 16 17 14 13 15 18 16 16 15 19 20 18 15 13 13 11 13 13 11 14
3 2 3 3 3 3 5 4 4 4 6 2 3 7 5 7 8 6 7 6 6 9 12 16 17 15 14 12 13 15 14 14 16 18 16 15 17 15 13 15 15 13 11 12
4 6 6 3 2 3 4 5 6 9 9 8 7 6 8 8 6 6 6 9 13 13 16 14 15 14 12 11 12 11 11 11 13 15 16 16 14 11 12 13 13 11 7 8
5 6 5 5 8 5 4 5 7 9 7 7 9 6 6 9 6 7 6 12 15 14 13 12 12 12 11 10 9 8 7 8 10 11 11 12 14 14 12 12 12 9 7 9
Wind_Direction
261 78 202 208 193 202 219 213 190 144 222 204 141 285 155 44 275 183 179 152 153 150 161 163 162 162 170 167 168 165 168 166 164 146 137 177 184 180 179 174 169 165 166 165
8 246 237 209 234 247 250 149 83 52 210 328 161 239 286 156 254 165 40 163 156 137 154 161 161 157 167 173 178 171 172 172 172 168 149 155 177 182 177 172 170 161 157 159
186 235 235 240 256 236 55 141 127 251 197 1 86 301 267 203 205 210 244 224 176 151 159 161 164 159 163 169 175 173 174 178 180 185 172 145 155 178 175 174 177 185 181 177
226 251 240 235 243 154 152 215 145 175 168 222 169 239 207 249 261 234 237 196 192 165 163 161 167 164 167 175 176 173 177 181 181 191 190 172 159 167 175 183 189 190 191 190
250 262 250 242 239 136 163 69 143 155 178 140 211 236 254 199 244 249 222 210 208 172 166 168 173 171 174 172 177 178 180 185 190 191 195 180 173 185 189 187 195 197 195 195
236 228 177 221 319 129 137 92 49 56 94 237 197 235 235 185 214 226 204 202 219 180 170 171 177 173 171 169 176 181 185 184 191 195 194 189 186 193 208 199 208 211 204 205
332 290 267 128 78 67 114 99 73 320 249 231 173 213 253 230 202 217 222 191 189 176 165 171 169 178 163 173 180 187 189 187 188 195 201 207 201 210 228 211 212 209 215 221
257 328 151 253 148 166 186 156 144 211 197 98 78 245 258 153 224 211 215 182 181 177 166 164 179 176 171 176 184 185 194 194 188 190 196 194 197 213 215 220 220 222 221 232
244 268 327 269 226 141 232 200 153 106 20 104 210 304 292 11 355 174 183 171 178 180 167 165 174 176 180 182 184 185 193 197 193 190 193 194 203 208 211 205 203 221 236 237
271 287 268 286 310 255 149 184 109 21 149 159 147 237 263 297 108 150 162 176 176 177 166 169 169 179 180 184 185 187 193 197 195 192 189 194 199 201 197 211 216 225 228 246
28 109 289 13 32 229 329 298 71 131 145 151 142 239 225 228 191 168 169 170 176 179 182 173 181 176 180 176 179 186 190 195 197 193 189 189 192 197 206 208 206 205 211 207
310 132 312 257 287 251 177 189 145 131 273 187 177 260 177 226 147 144 122 162 158 156 183 192 172 166 181 173 176 180 188 196 198 196 193 192 196 199 206 212 212 214 216 206
326 357 14 347 346 6 41 345 355 87 85 217 146 262 348 355 36 68 39 33 100 181 194 186 169 164 157 165 167 174 184 193 196 197 196 197 198 203 206 212 221 222 225 216
71 118 143 188 236 226 332 5 6 121 113 223 213 205 269 219 38 79 39 15 76 225 186 158 137 166 160 162 172 192 189 194 192 199 202 200 201 203 209 215 219 221 229 234
83 271 208 206 331 32 57 29 24 25 293 165 248 176 215 41 56 60 36 322 58 83 129 173 160 169 163 156 167 189 179 180 178 200 209 206 201 204 201 196 194 222 227 227
16 290 327 36 14 53 52 34 24 16 359 45 85 68 36 44 26 3 8 340 34 66 101 188 168 158 154 151 150 157 160 170 178 201 212 204 189 181 211 223 210 177 188 238
68 42 22 257 331 76 42 349 14 49 25 36 71 357 87 43 54 28 26 65 51 135 89 68 310 129 135 140 147 151 176 193 196 193 214 221 214 225 245 231 239 211 208 206
93 7 125 228 352 120 229 305 30 51 41 68 85 102 113 125 129 83 38 47 51 65 54 75 52 75 113 158 154 171 185 186 201 206 204 222 220 224 225 219 235 230 236 238
234 121 57 112 87 102 333 336 31 48 326 343 138 124 121 119 90 56 61 55 69 61 64 91 120 113 126 145 177 177 184 183 192 197 198 201 198 192 194 209 210 228 245 231
21 75 112 59 82 179 214 233 149 139 30 276 136 155 155 261 72 163 105 90 82 74 87 71 81 131 153 153 153 154 152 160 171 185 216 202 193 190 181 189 190 196 213 223
359 21 101 85 88 289 253 270 232 105 187 259 182 175 170 161 191 109 98 71 98 96 84 94 94 77 100 130 143 135 135 132 164 188 205 175 168 169 173 168 168 168 167 163
191 122 134 101 42 203 8 294 193 206 145 185 180 93 110 116 118 120 109 115 114 107 103 113 109 101 99 109 125 116 116 135 153 159 151 149 155 161 163 152 149 158 160 154
316 179 181 158 197 224 286 1 125 138 168 224 157 122 121 126 128 130 124 121 127 128 124 117 114 114 109 113 123 121 115 118 130 130 133 140 147 155 158 158 158 158 174 169
239 152 111 103 258 221 224 154 171 79 46 71 81 116 117 122 110 102 109 126 105 113 116 115 110 103 106 121 129 135 136 143 135 125 118 113 119 119 126 151 159 161 165 170
198 137 149 270 63 97 300 96 93 63 58 88 73 107 121 107 104 130 131 115 128 121 116 120 115 113 115 123 129 132 133 149 146 137 131 129 128 125 118 107 106 106 119 143
185 166 159 208 187 151 207 135 107 88 79 123 112 101 119 130 140 136 113 126 132 128 129 124 121 125 130 134 132 127 131 135 143 152 159 154 147 142 134 129 116 100 95 98